This is the latest recevied weather packets stored in our database for station/object JF2ZGN-13. If no packets are shown the sender has not sent any weather packets the latest 10 day(s).
| Time | Temp. | Humidity | Pressure | Rain* | Wind** | Luminosity | Snow |
|---|---|---|---|---|---|---|---|
| 1777924576 | 6.11° C | 71% | 905.6 hPa | 0 mm | - | - | - |
| 1777923975 | 5.56° C | 76% | 905.2 hPa | 0 mm | - | - | - |
| 1777923375 | 5° C | 79% | 904.9 hPa | 0 mm | - | - | - |
| 1777922774 | 5.56° C | 79% | 904.7 hPa | 0 mm | - | - | - |
| 1777922174 | 5.56° C | 79% | 904.6 hPa | 0 mm | - | - | - |
| 1777921573 | 5.56° C | 79% | 904.4 hPa | 0 mm | - | - | - |
| 1777920973 | 5.56° C | 79% | 904.1 hPa | 0 mm | - | - | - |
| 1777920373 | 5.56° C | 80% | 904 hPa | 0 mm | - | - | - |
| 1777919772 | 5.56° C | 80% | 903.8 hPa | 0 mm | - | - | - |
| 1777919172 | 5.56° C | 78% | 903.6 hPa | 0 mm | - | - | - |
| 1777918572 | 6.11° C | 78% | 903.6 hPa | 0 mm | - | - | - |
| 1777917971 | 6.67° C | 81% | 903.2 hPa | 0 mm | - | - | - |
| 1777917370 | 6.67° C | 82% | 903.1 hPa | 0 mm | - | - | - |
| 1777916770 | 7.22° C | 81% | 903 hPa | 0 mm | - | - | - |
| 1777916170 | 7.22° C | 81% | 902.9 hPa | 0 mm | - | - | - |
| 1777915570 | 7.22° C | 82% | 902.7 hPa | 0 mm | - | - | - |
| 1777914968 | 7.22° C | 81% | 902.5 hPa | 0 mm | - | - | - |
| 1777914368 | 7.22° C | 80% | 902.6 hPa | 0 mm | - | - | - |
| 1777913769 | 7.22° C | 77% | 902.6 hPa | 0 mm | - | - | - |
| 1777913167 | 7.22° C | 79% | 902.4 hPa | 0 mm | - | - | - |
| 1777912567 | 7.78° C | 78% | 902.2 hPa | 0 mm | - | - | - |
| 1777911966 | 7.78° C | 73% | 902.1 hPa | 0 mm | - | - | - |
| 1777911366 | 8.33° C | 64% | 901.8 hPa | 0 mm | - | - | - |
| 1777910765 | 8.33° C | 62% | 901.6 hPa | 0 mm | - | - | - |
| 1777910165 | 8.89° C | 60% | 901.7 hPa | 0 mm | - | - | - |
* Rain since midnight (hover to see other rain measurements)
** Current wind speed in m/s (hover to see current wind gust speed)